Location: Nied?wied?
(53.3665°N, 14.8184°E)
Time: 18:06:36
(UTC+00:00)

ISS - Pass Details

Date: 16 May 2021
Orbit: 417 x 422 km, 51.6° (Epoch: 14 June)

Event Time Altitude Azimuth Distance (km) Brightness Sun altitude
Rises 22:27:33 0° 265° (W) 2,368 0.1 -17.0°
Reaches altitude 10° 22:29:39 10° 263° (W) 1,505 -1.0 -17.1°
Maximum altitude 22:33:00 66° 180° (S) 463 -3.9 -17.1°
Drops below altitude 10° 22:36:22 10° 98° (E) 1,508 -1.1 -17.2°
Sets 22:38:28 0° 96° (E) 2,373 0.0 -17.2°
